This demonstration page uses our WeatherBlox Daily Observations layout. Learn more.

Hourly Observations for March 8, 2017

Temp ( °F °C ) Dew Point ( °F °C ) Humidity (%) Winds ( mph kmh ) Pressure ( in mb ) Visibility ( mi km ) Precip ( " mm )
12:15 am 00:15 Clear 31 -0.4 8 -13.2 38 38 W 3 6 30.24 1024 10 16.0934 0 0
12:35 am 00:35 Clear 29 -1.9 8 -13.3 42 42 W 5 7 30.24 1024 10 16.0934 0 0
12:55 am 00:55 Clear 31 -0.5 9 -12.6 40 40 NW 7 11 30.24 1024 10 16.0934 0 0
1:15 am 01:15 Clear 30 -1.1 11 -11.9 44 44 SW 8 13 30.24 1024 10 16.0934 0 0
1:35 am 01:35 Clear 31 -0.5 10 -12 42 42 SW 6 9 30.24 1024 10 16.0934 0 0
1:55 am 01:55 Clear 31 -0.8 11 -11.9 43 43 W 3 6 30.24 1024 10 16.0934 0 0
2:15 am 02:15 Clear 31 -0.7 10 -12.1 42 42 Calm 30.24 1024 10 16.0934 0 0
2:35 am 02:35 Clear 31 -0.8 11 -11.4 45 45 SW 5 7 30.24 1024 10 16.0934 0 0
2:55 am 02:55 Clear 32 -0.1 11 -11.5 42 42 SW 3 6 30.24 1024 10 16.0934 0 0
3:15 am 03:15 Clear 32 0 12 -11.2 43 43 SW 6 9 30.24 1024 10 16.0934 0 0
3:35 am 03:35 Clear 32 0 12 -11 44 44 SW 6 9 30.24 1024 10 16.0934 0 0
3:55 am 03:55 Clear 31 -0.3 12 -11 45 45 SW 6 9 30.24 1024 10 16.0934 0 0
4:15 am 04:15 Clear 31 -0.7 12 -11.1 46 46 SW 5 7 30.24 1024 10 16.0934 0 0
4:35 am 04:35 Clear 30 -1.1 12 -11.3 46 46 SW 6 9 30.24 1024 10 16.0934 0 0
4:55 am 04:55 Clear 31 -0.4 12 -11.2 44 44 SW 7 11 30.24 1024 10 16.0934 0 0
5:15 am 05:15 Partly Cloudy 31 -0.5 11 -11.5 44 44 SW 7 11 30.24 1024 10 16.0934 0 0
5:35 am 05:35 Partly Cloudy 32 0 11 -11.5 42 42 SSW 7 11 30.24 1024 10 16.0934 0 0
5:55 am 05:55 Clear 31 -0.7 11 -11.5 44 44 Calm 30.24 1024 10 16.0934 0 0
6:15 am 06:15 Clear 31 -0.6 11 -11.5 44 44 Calm 30.24 1024 10 16.0934 0 0
6:35 am 06:35 Clear 25 -4.1 11 -11.5 57 57 WNW 3 6 30.27 1025 10 16.0934 0 0
6:55 am 06:55 Clear 24 -4.2 11 -11.7 56 56 N 13 20 30.27 1025 10 16.0934 0 0
7:15 am 07:15 Sunny 24 -4.7 13 -10.7 63 63 N 5 7 30.27 1025 10 16.0934 0 0
7:35 am 07:35 Sunny 25 -3.8 13 -10.4 61 61 Calm 30.3 1026 10 16.0934 0 0
7:55 am 07:55 Sunny 27 -2.9 15 -9.6 60 60 Calm 30.3 1026 10 16.0934 0 0
8:15 am 08:15 Sunny 31 -0.6 16 -8.9 54 54 Calm 30.27 1025 10 16.0934 0 0
8:35 am 08:35 Sunny 34 1.2 17 -8.5 49 49 Calm 30.24 1024 10 16.0934 0 0
8:55 am 08:55 Sunny 37 3 17 -8.5 43 43 NNW 6 9 30.24 1024 10 16.0934 0 0
9:15 am 09:15 Sunny 41 4.8 17 -8.3 38 38 N 5 7 30.21 1023 10 16.0934 0 0
9:35 am 09:35 Sunny 43 6.2 17 -8.6 34 34 Calm 30.21 1023 10 16.0934 0 0
9:55 am 09:55 Sunny 46 7.5 15 -9.2 30 30 Calm 30.15 1021 10 16.0934 0 0
10:15 am 10:15 Sunny 49 9.2 15 -9.3 26 26 SSW 5 7 30.15 1021 10 16.0934 0 0
10:35 am 10:35 Sunny 50 10.2 15 -9.3 25 25 SSW 6 9 30.15 1021 10 16.0934 0 0
10:55 am 10:55 Sunny 53 11.5 15 -9.6 22 22 S 6 9 30.12 1020 10 16.0934 0 0
11:15 am 11:15 Sunny 54 12.3 14 -10 20 20 S 8 13 30.12 1020 10 16.0934 0 0
11:35 am 11:35 Sunny 55 12.9 14 -10.2 19 19 SSW 6 9 30.12 1020 10 16.0934 0 0
11:55 am 11:55 Sunny 56 13.3 13 -10.8 18 18 SSW 7 11 30.12 1020 10 16.0934 0 0
12:15 pm 12:15 Sunny 57 14 11 -11.7 16 16 SSE 6 9 30.09 1019 10 16.0934 0 0
12:35 pm 12:35 Sunny 57 14.1 10 -12.2 15 15 SE 5 7 30.06 1018 10 16.0934 0 0
12:55 pm 12:55 Sunny 58 14.6 10 -12 15 15 SSE 7 11 30.06 1018 10 16.0934 0 0
1:15 pm 13:15 Sunny 59 15.1 11 -11.8 15 15 SW 3 6 30.06 1018 10 16.0934 0 0
1:35 pm 13:35 Sunny 60 15.4 11 -11.5 15 15 SSW 3 6 30.06 1018 10 16.0934 0 0
1:55 pm 13:55 Sunny 60 15.5 11 -11.5 15 15 SSW 7 11 30.03 1017 10 16.0934 0 0
2:15 pm 14:15 Sunny 60 15.8 11 -11.5 14 14 SSW 7 11 30.03 1017 10 16.0934 0 0
2:35 pm 14:35 Sunny 61 16 11 -11.6 14 14 Calm 30.03 1017 10 16.0934 0 0
2:55 pm 14:55 Sunny 62 16.4 12 -11.2 14 14 Calm 30.03 1017 10 16.0934 0 0
3:15 pm 15:15 Sunny 62 16.7 13 -10.7 14 14 WNW 5 7 30 1016 10 16.0934 0 0
3:35 pm 15:35 Sunny 63 17 13 -10.5 14 14 WSW 5 7 30 1016 10 16.0934 0 0
3:55 pm 15:55 Sunny 63 17 14 -10.2 15 15 W 6 9 29.97 1015 10 16.0934 0 0
4:15 pm 16:15 Sunny 63 17.1 13 -10.3 14 14 SW 5 7 29.97 1015 10 16.0934 0 0
4:35 pm 16:35 Sunny 63 17 14 -10.1 15 15 SW 5 7 29.97 1015 10 16.0934 0 0
4:55 pm 16:55 Sunny 63 17 14 -10.1 15 15 SSW 7 11 29.97 1015 10 16.0934 0 0
5:15 pm 17:15 Sunny 63 17 14 -10.1 15 15 S 5 7 29.97 1015 10 16.0934 0 0
5:35 pm 17:35 Sunny 63 17 14 -9.9 15 15 S 3 6 29.97 1015 10 16.0934 0 0
5:55 pm 17:55 Sunny 62 16.4 15 -9.7 16 16 S 3 6 29.94 1014 10 16.0934 0 0
6:15 pm 18:15 Sunny 56 13.6 16 -9 20 20 SE 8 13 29.97 1015 10 16.0934 0 0
6:35 pm 18:35 Sunny 52 11.2 15 -9.3 23 23 SSE 9 15 30 1016 10 16.0934 0 0
6:55 pm 18:55 Clear 50 9.8 15 -9.4 25 25 SSE 8 13 30 1016 10 16.0934 0 0
7:15 pm 19:15 Clear 47 8.6 15 -9.6 27 27 SSE 8 13 30.03 1017 10 16.0934 0 0
7:35 pm 19:35 Clear 46 7.9 15 -9.3 29 29 SSE 9 15 30.06 1018 10 16.0934 0 0
7:55 pm 19:55 Clear 46 8 16 -9.1 29 29 SSE 9 15 30.06 1018 10 16.0934 0 0
8:15 pm 20:15 Clear 46 7.6 16 -9.1 30 30 SSE 8 13 30.06 1018 10 16.0934 0 0
8:35 pm 20:35 Clear 46 7.5 16 -9 30 30 S 7 11 30.06 1018 10 16.0934 0 0
8:55 pm 20:55 Clear 45 7 16 -9 31 31 S 8 13 30.06 1018 10 16.0934 0 0
9:15 pm 21:15 Clear 47 8.2 17 -8.5 30 30 S 9 15 30.06 1018 10 16.0934 0 0
9:35 pm 21:35 Clear 46 7.9 17 -8.6 30 30 S 7 11 30.06 1018 10 16.0934 0 0
9:55 pm 21:55 Clear 44 6.8 17 -8.5 33 33 S 6 9 30.06 1018 10 16.0934 0 0
10:15 pm 22:15 Partly Cloudy 47 8.6 18 -8 30 30 S 12 19 30.06 1018 10 16.0934 0 0
10:35 pm 22:35 Partly Cloudy 46 7.8 18 -7.6 33 33 SW 8 13 30.09 1019 10 16.0934 0 0
10:55 pm 22:55 Partly Cloudy 44 6.8 19 -7.5 36 36 SW 9 15 30.09 1019 10 16.0934 0 0
11:15 pm 23:15 Partly Cloudy 44 6.7 18 -7.7 35 35 SW 8 13 30.09 1019 10 16.0934 0 0
11:35 pm 23:35 Clear 46 7.7 18 -7.8 33 33 WSW 8 13 30.06 1018 10 16.0934 0 0
11:55 pm 23:55 Clear 48 8.7 18 -7.8 31 31 SW 9 15 30.06 1018 10 16.0934 0 0

Powered by AerisWeather